N1XBM-13 Weather Reports


time (UTC)temp
C
wind
direction
speed
KPH
gust
KPH
rain 1hr
cm
rain 24hr
cm
rain mn
cm
humidity
%
barometer
mb
20260507072004 9 358 4.8 9.7 0.00 1.17 0.28 92 990.5
20260507070008 9 354 3.2 4.8 0.00 1.17 0.28 93 990.0
20260507065004 9 353 1.6 9.7 0.00 1.17 0.28 94 990.0
20260507063004 9 308 1.6 4.8 0.00 1.17 0.28 94 989.9
20260507060004 10 311 1.6 9.7 0.00 1.17 0.28 93 989.7
20260507055004 10 322 1.6 8.0 0.00 1.17 0.28 93 989.5
20260507054004 10 322 1.6 11.3 0.03 1.17 0.28 93 989.5
20260507053004 10 295 1.6 11.3 0.03 1.17 0.28 93 989.3
20260507052004 11 351 3.2 9.7 0.03 1.17 0.28 95 989.4
20260507051003 11 51 0.0 8.0 0.10 1.17 0.28 95 989.4
20260507050004 11 62 0.0 12.9 0.28 1.17 0.28 95 989.4
20260507044006 11 354 3.2 11.3 0.28 1.14 0.25 95 989.3
20260507043004 11 336 3.2 11.3 0.28 1.14 0.25 95 989.2
20260507042005 11 44 3.2 14.5 0.28 1.14 0.25 95 989.3
20260507041004 11 5 4.8 14.5 0.20 1.07 0.18 95 989.6
20260507040004 12 343 6.4 19.3 0.03 0.89 0.00 95 989.4
20260507035004 12 13 1.6 14.5 0.03 0.89 0.89 96 988.8
20260507034004 12 336 0.0 8.0 0.00 0.86 0.86 96 988.7
20260507033003 12 247 0.0 0.0 0.00 0.86 0.86 96 988.7
20260507032004 12 247 0.0 0.0 0.00 0.86 0.86 96 988.4
20260507031004 12 247 0.0 0.0 0.00 0.86 0.86 96 988.3
20260507030004 12 247 0.0 0.0 0.00 0.86 0.86 96 988.3
20260507025004 12 247 0.0 0.0 0.00 0.86 0.86 96 988.3
20260507024003 12 247 0.0 0.0 0.00 0.86 0.86 96 988.4
20260507022004 12 247 0.0 0.0 0.03 0.86 0.86 96 988.6
20260507020004 12 247 0.0 1.6 0.03 0.86 0.86 96 988.7
20260507014005 12 219 0.0 1.6 0.03 0.86 0.86 96 988.9
20260507010004 12 260 1.6 9.7 0.00 0.84 0.84 96 989.0
20260507005004 12 238 3.2 12.9 0.00 0.86 0.84 96 989.0
20260507004003 12 216 3.2 11.3 0.00 0.86 0.84 96 989.0
20260507003004 12 202 4.8 11.3 0.00 0.86 0.84 96 989.1
20260507002004 12 207 4.8 12.9 0.00 0.86 0.84 96 989.0
20260507000004 12 204 1.6 11.3 0.00 0.86 0.84 96 989.0
20260506235004 12 232 4.8 14.5 0.00 0.86 0.84 95 989.0
20260506234004 12 266 3.2 9.7 0.00 0.86 0.84 95 989.0
20260506232004 13 227 4.8 11.3 0.00 0.86 0.84 95 989.1
20260506230004 13 202 4.8 11.3 0.03 0.86 0.84 95 989.2
20260506225003 13 230 1.6 11.3 0.03 0.86 0.84 95 989.3
20260506223003 13 275 0.0 12.9 0.03 0.86 0.84 95 989.5
20260506222004 13 197 3.2 8.0 0.03 0.86 0.84 95 989.6
20260506221004 13 241 3.2 9.7 0.05 0.86 0.84 95 989.7
20260506220005 13 237 1.6 8.0 0.05 0.84 0.81 95 989.8
20260506215005 13 259 1.6 8.0 0.08 0.84 0.81 95 989.9
20260506214003 13 216 1.6 9.7 0.13 0.84 0.81 95 989.9
20260506212004 13 202 0.0 12.9 0.18 0.84 0.81 95 990.0
20260506211003 13 210 1.6 9.7 0.15 0.81 0.79 94 990.0
20260506210004 13 262 3.2 8.0 0.13 0.79 0.76 95 990.1
20260506205005 13 210 1.6 4.8 0.15 0.76 0.74 94 990.1
20260506204004 13 128 0.0 0.0 0.13 0.71 0.69 94 990.3
20260506202004 13 222 0.0 4.8 0.13 0.66 0.64 94 990.4
20260506201005 13 182 0.0 9.7 0.20 0.66 0.64 94 990.3
20260506200004 13 210 1.6 9.7 0.43 0.66 0.64 93 990.5
20260506195004 13 189 0.0 3.2 0.48 0.61 0.58 93 990.7
20260506194004 13 141 0.0 4.8 0.53 0.58 0.56 93 990.7
20260506193004 13 198 0.0 0.0 0.53 0.56 0.53 92 990.7
20260506192004 13 198 0.0 3.2 0.51 0.53 0.51 92 990.7
20260506191004 13 197 4.8 9.7 0.43 0.46 0.43 91 991.1
20260506190006 13 269 3.2 9.7 0.20 0.23 0.20 90 991.3
20260506185003 14 234 1.6 11.3 0.10 0.13 0.10 86 990.7
20260506184004 15 210 3.2 14.5 0.03 0.05 0.03 85 991.0
20260506183005 15 199 4.8 12.9 0.00 0.03 0.00 80 990.8
20260506182003 16 198 3.2 12.9 0.00 0.03 0.00 77 990.7
20260506180005 16 218 4.8 11.3 0.00 0.03 0.00 74 990.8
20260506175004 16 229 3.2 8.0 0.00 0.03 0.00 75 990.7
20260506174004 16 226 4.8 12.9 0.00 0.03 0.00 75 990.9
20260506173005 16 263 3.2 8.0 0.00 0.03 0.00 76 991.1
20260506172004 16 192 3.2 8.0 0.00 0.03 0.00 75 991.2
20260506165005 17 210 3.2 9.7 0.00 0.03 0.00 74 991.9
20260506164004 17 134 4.8 11.3 0.00 0.03 0.00 73 992.0
20260506163004 17 199 1.6 9.7 0.00 0.03 0.00 75 992.3
20260506162004 16 230 3.2 11.3 0.00 0.03 0.00 74 992.4
20260506161005 16 263 3.2 8.0 0.00 0.03 0.00 76 992.7
20260506160003 16 205 0.0 8.0 0.00 0.03 0.00 75 992.9
20260506155004 16 72 1.6 8.0 0.00 0.03 0.00 75 993.0
20260506154004 16 185 3.2 8.0 0.00 0.03 0.00 76 993.0
20260506153004 16 142 1.6 8.0 0.00 0.03 0.00 76 993.0
20260506152004 16 162 3.2 8.0 0.00 0.03 0.00 76 993.1
20260506151004 16 176 1.6 8.0 0.00 0.03 0.00 76 992.9
20260506150004 16 218 1.6 4.8 0.00 0.03 0.00 76 993.0
20260506145004 16 178 1.6 4.8 0.00 0.03 0.00 76 992.9
20260506144005 16 272 3.2 8.0 0.00 0.03 0.00 76 992.7
20260506143004 16 168 4.8 11.3 0.00 0.03 0.00 75 992.5
20260506142004 16 187 3.2 11.3 0.00 0.03 0.00 74 992.7
20260506141004 16 171 0.0 4.8 0.00 0.03 0.00 75 993.0
20260506140004 16 177 3.2 4.8 0.00 0.03 0.00 77 993.3
20260506135004 15 109 0.0 4.8 0.00 0.03 0.00 76 993.2
20260506133005 15 235 0.0 3.2 0.00 0.03 0.00 77 993.4
20260506132005 15 103 0.0 4.8 0.00 0.03 0.00 78 993.1
20260506131004 15 150 0.0 4.8 0.00 0.03 0.00 79 993.1
20260506130004 14 119 0.0 8.0 0.00 0.03 0.00 79 993.1
20260506125004 14 164 1.6 3.2 0.00 0.03 0.00 79 993.1
20260506123004 13 151 0.0 4.8 0.00 0.03 0.00 81 993.4
20260506121005 13 107 0.0 0.0 0.00 0.03 0.00 83 993.6
20260506120004 13 107 0.0 0.0 0.00 0.03 0.00 83 993.5
20260506115004 12 107 0.0 0.0 0.00 0.03 0.00 83 993.8
20260506114004 12 107 0.0 0.0 0.00 0.03 0.00 84 993.7
20260506112004 12 107 0.0 0.0 0.00 0.03 0.00 84 993.9
20260506105004 12 90 0.0 0.0 0.00 0.03 0.00 86 993.9
20260506104004 12 90 0.0 0.0 0.00 0.03 0.00 86 993.8
20260506103004 12 90 0.0 3.2 0.00 0.03 0.00 86 993.7
20260506102004 12 112 0.0 0.0 0.00 0.03 0.00 86 993.6
20260506100005 12 112 0.0 4.8 0.00 0.03 0.00 86 993.5
20260506095004 12 31 1.6 3.2 0.00 0.03 0.00 86 993.6
20260506094004 12 64 0.0 0.0 0.00 0.03 0.00 86 993.5
20260506093004 12 64 0.0 0.0 0.00 0.03 0.00 85 993.7
20260506091004 12 64 0.0 0.0 0.00 0.03 0.00 82 993.4
20260506090004 12 64 0.0 0.0 0.00 0.03 0.00 82 993.4
20260506085004 12 109 0.0 0.0 0.00 0.03 0.00 82 993.1
20260506084004 12 109 0.0 0.0 0.00 0.03 0.00 83 993.1
20260506083003 12 109 0.0 0.0 0.00 0.03 0.00 84 992.9
20260506082004 12 109 0.0 0.0 0.00 0.03 0.00 84 992.9
20260506073004 12 109 0.0 0.0 0.00 0.03 0.00 84 992.9